Shungnak AP, Shungnak, AK, AK

4:57 AM AKST on December 08, 2019 (GMT -0900)
Shungnak AP, Shungnak, AK

Weather History for PAGH - October, 2019

Change the Weather History Date:

Thursday, October 24, 2019

  Actual Average (PAFM) Record (PAFM)
Temperature  
Mean Temperature 13 °F -  
Max Temperature 19 °F 18 °F 44 °F (2002)
Min Temperature 7 °F 10 °F -21 °F (1983)
Degree Days  
Heating Degree Days 52    
Moisture  
Dew Point 8 °F    
Average Humidity 87    
Maximum Humidity 92    
Minimum Humidity 81    
Precipitation  
Precipitation 0.00 in - - ()
Sea Level Pressure  
Sea Level Pressure 29.60 in    
Wind  
Wind Speed 2 mph (SE)    
Max Wind Speed 6 mph    
Max Gust Speed -    
Visibility 10 miles    
Events      
Averages and records for this station are not official NWS values.
T = Trace of Precipitation, MM = Missing Value Source: NWS Daily Summary

Daily Weather History Graph

Daily Weather History Graph

Search for Another Location

Airport or City:

Astronomy

Oct. 24, 2019 Rise Set
Actual Time 10:00 AM AKDT 6:23 PM AKDT
Civil Twilight 9:03 AM AKDT 7:20 PM AKDT
Nautical Twilight 8:01 AM AKDT 8:22 PM AKDT
Astronomical Twilight 6:59 AM AKDT 9:24 PM AKDT
Moon 3:10 AM AKDT (10/24) 7:04 PM AKDT (10/24)
Length of Visible Light 10h 17m
Length of Day
8h 23m
Waning Crescent, 15% of the Moon is Illuminated
Oct 24
Waning Crescent
Oct 27
New
Nov 4
First Quarter
Nov 12
Full
Nov 19
Last Quarter

Hourly Weather History & Observations

Time (AKDT) Temp. Windchill Dew Point Humidity Pressure Visibility Wind Dir Wind Speed Gust Speed Precip Events Conditions
12:56 AM 10.9 °F - 7.0 °F 84% 29.49 in 10.0 mi Calm Calm - N/A   Clear
1:56 AM 12.0 °F 5.9 °F 9.0 °F 88% 29.49 in 10.0 mi SE 3.5 mph - N/A   Clear
2:56 AM 9.0 °F 2.4 °F 5.0 °F 84% 29.49 in 10.0 mi East 3.5 mph - N/A   Clear
3:56 AM 9.0 °F - 7.0 °F 92% 29.50 in 10.0 mi Calm Calm - N/A   Clear
4:56 AM 8.1 °F -0.5 °F 5.0 °F 87% 29.51 in 10.0 mi ESE 4.6 mph - N/A   Clear
5:56 AM 8.1 °F -0.5 °F 5.0 °F 87% 29.52 in 10.0 mi ESE 4.6 mph - N/A   Clear
6:56 AM 8.1 °F 1.4 °F 5.0 °F 87% 29.52 in 10.0 mi SE 3.5 mph - N/A   Clear
7:56 AM 8.1 °F - 5.0 °F 87% 29.53 in 10.0 mi Calm Calm - N/A   Partly Cloudy
8:56 AM 8.1 °F -2.0 °F 5.0 °F 87% 29.55 in 10.0 mi SE 5.8 mph - N/A   Clear
9:56 AM 7.0 °F 0.1 °F 3.9 °F 87% 29.56 in 10.0 mi ESE 3.5 mph - N/A   Clear
10:56 AM 8.1 °F 1.4 °F 6.1 °F 92% 29.58 in 10.0 mi SE 3.5 mph - N/A   Clear
11:56 AM 10.9 °F - 7.0 °F 84% 29.59 in 10.0 mi Calm Calm - N/A   Clear
12:56 PM 10.9 °F - 9.0 °F 92% 29.60 in 10.0 mi Calm Calm - N/A   Clear
1:56 PM 14.0 °F - 10.9 °F 88% 29.62 in 10.0 mi Calm Calm - N/A   Clear
2:56 PM 19.0 °F - 14.0 °F 81% 29.62 in 10.0 mi Calm Calm - N/A   Clear
3:56 PM 16.0 °F - 12.0 °F 84% 29.63 in 10.0 mi Calm Calm - N/A   Clear
4:56 PM 18.0 °F - 14.0 °F 84% 29.64 in 10.0 mi Calm Calm - N/A   Clear
5:56 PM 15.1 °F - 10.9 °F 84% 29.65 in 10.0 mi Calm Calm - N/A   Clear
6:56 PM 12.9 °F 6.9 °F 10.0 °F 88% 29.67 in 10.0 mi South 3.5 mph - N/A   Clear
7:56 PM 12.0 °F - 9.0 °F 88% 29.68 in 10.0 mi Calm Calm - N/A   Clear
8:56 PM 12.0 °F - 10.0 °F 92% 29.70 in 10.0 mi Calm Calm - N/A   Clear
9:56 PM 10.9 °F 4.7 °F 8.1 °F 88% 29.73 in 10.0 mi West 3.5 mph - N/A   Clear
10:56 PM 10.0 °F 3.6 °F 6.1 °F 84% 29.75 in 10.0 mi SW 3.5 mph - N/A   Clear
11:56 PM 10.9 °F 4.7 °F 6.1 °F 81% 29.77 in 10.0 mi West 3.5 mph - N/A   Mostly Cloudy